Flag for U.S.A. Weather past 2 weeks in Terre Haute, Indiana, U.S.A.

Now
62 °F

Sunny.


Feels Like: 62 °F
Forecast: 56 / 81 °F
Wind: 5 mph from Southeast

Location: Terre Haute International Airport - Hulman Field

Current Time: Aug 28, 2015 at 9:30:14 AM

Latest Report: Aug 28, 2015 at 8:53 AM


Visibility: 10 mi

Pressure: 30.16 "Hg

Humidity: 86%

Dew point: 58 °F

Location of Terre HauteLocation

Historic Weather in Terre Haute — Graph

°F

Terre Haute temperature yesterday

Maximum temperature yesterday: 82 °F (at 3:53 PM)
Minimum temperature yesterday: 52 °F (at 6:53 AM)
Average temperature yesterday: 66 °F

Past Weeks' High & Low Weather Summary

 TemperatureHumidityPressure
High89 °F (Aug 17, 3:53 PM)97% (Aug 14, 2:53 AM)30.19 "Hg (Aug 14, 2:53 AM)
Low48 °F (Aug 25, 6:53 AM)36% (Aug 20, 3:53 PM)29.73 "Hg (Aug 19, 7:53 AM)
Average70 °F72%30.04 "Hg
* Reported Aug 13 7:53 AM — Aug 28 7:53 AM, Terre Haute, Weather by CustomWeather, © 2015

Note: Actual official high and low records may vary slightly from our data, if they occured in-between our weather recording intervals... More about our weather records

Advertising

Terre Haute weather history for previous 24 hours

 ConditionsComfort  
Time TempWeatherWind HumidityBarometerVisibility
7:53 AM
Fri, Aug 28
54 °FFog.No wind97%30.16 "Hg1 mi
6:53 AM56 °FClear.No wind97%30.14 "Hg10 mi
5:53 AM59 °FOvercast.No wind93%30.13 "Hg10 mi
4:53 AM61 °FOvercast.3 mph90%30.12 "Hg10 mi
3:53 AM59 °FOvercast.No wind93%30.12 "Hg10 mi
2:53 AM61 °FPassing clouds.3 mph90%30.11 "Hg10 mi
1:53 AM58 °FPassing clouds.No wind93%30.11 "Hg10 mi
12:53 AM59 °FClear.No wind90%30.11 "Hg10 mi
11:53 PM
Thu, Aug 27
60 °FClear.No wind93%30.10 "Hg10 mi
10:53 PM63 °FClear.No wind87%30.10 "Hg10 mi
9:53 PM65 °FPassing clouds.No wind85%30.10 "Hg10 mi
8:53 PM69 °FSunny.No wind73%30.09 "Hg10 mi
7:53 PM76 °FPartly sunny.3 mph64%30.09 "Hg10 mi
6:53 PM78 °FPartly sunny.No wind56%30.11 "Hg10 mi
5:53 PM79 °FSunny.No wind45%30.10 "Hg10 mi
4:53 PM78 °FScattered clouds.No wind46%30.11 "Hg10 mi
3:53 PM82 °FPartly sunny.7 mph43%30.12 "Hg10 mi
2:53 PM79 °FSunny.6 mph45%30.14 "Hg10 mi
1:53 PM79 °FPassing clouds.8 mph47%30.13 "Hg10 mi
12:53 PM75 °FScattered clouds.3 mph55%30.13 "Hg10 mi
11:53 AM73 °FSunny.3 mph62%30.15 "Hg10 mi
10:53 AM67 °FSunny.No wind76%30.18 "HgN/A
9:53 AM64 °FSunny.No wind78%30.19 "Hg10 mi
Weather by CustomWeather, © 2015

See weather overviewHow to use our weather pages